Time,TemperatureF,DewpointF,PressureIn,WindDirection,WindDirectionDegrees,WindSpeedMPH,WindSpeedGustMPH,Humidity,HourlyPrecipIn,Conditions,Clouds,dailyrainin,SoftwareType,DateUTC
2013-06-09 00:04:00,66.5,56.0,29.84,ESE,103,4.0,8.0,69,0.00,,,0.00,Wunderground v.1.15,2013-06-09 05:04:00,
2013-06-09 00:10:00,66.6,55.7,29.84,ESE,113,4.0,4.0,68,0.00,,,0.00,Wunderground v.1.15,2013-06-09 05:10:00,
2013-06-09 00:15:00,66.6,56.1,29.84,ESE,112,4.0,8.0,69,0.00,,,0.00,Wunderground v.1.15,2013-06-09 05:15:00,
2013-06-09 00:22:00,66.6,56.1,29.84,SE,125,5.0,8.0,69,0.00,,,0.00,Wunderground v.1.15,2013-06-09 05:22:00,
2013-06-09 00:27:00,66.6,55.7,29.83,SE,129,5.0,8.0,68,0.00,,,0.00,Wunderground v.1.15,2013-06-09 05:27:00,
2013-06-09 00:34:00,66.6,56.1,29.83,SE,126,4.0,8.0,69,0.00,,,0.00,Wunderground v.1.15,2013-06-09 05:34:00,
2013-06-09 00:40:00,66.5,56.0,29.83,ESE,116,5.0,5.0,69,0.00,,,0.00,Wunderground v.1.15,2013-06-09 05:40:00,
2013-06-09 00:46:00,66.5,56.0,29.83,SE,131,5.0,8.0,69,0.00,,,0.00,Wunderground v.1.15,2013-06-09 05:46:00,
2013-06-09 00:52:00,66.4,55.9,29.83,SE,135,5.0,8.0,69,0.00,,,0.00,Wunderground v.1.15,2013-06-09 05:52:00,
2013-06-09 00:58:00,66.2,56.1,29.83,SE,125,4.0,8.0,70,0.00,,,0.00,Wunderground v.1.15,2013-06-09 05:58:00,
2013-06-09 01:04:00,66.2,56.1,29.83,East,82,5.0,8.0,70,0.00,,,0.00,Wunderground v.1.15,2013-06-09 06:04:00,
2013-06-09 01:09:00,66.2,56.1,29.82,ESE,116,5.0,8.0,70,0.00,,,0.00,Wunderground v.1.15,2013-06-09 06:09:00,
2013-06-09 01:16:00,66.2,56.1,29.82,ESE,113,5.0,8.0,70,0.00,,,0.00,Wunderground v.1.15,2013-06-09 06:16:00,
2013-06-09 01:22:00,66.1,56.0,29.82,ESE,105,5.0,8.0,70,0.00,,,0.00,Wunderground v.1.15,2013-06-09 06:22:00,
2013-06-09 01:28:00,66.0,55.9,29.82,SE,126,5.0,8.0,70,0.00,,,0.00,Wunderground v.1.15,2013-06-09 06:28:00,
2013-06-09 01:34:00,66.0,56.3,29.82,SE,129,5.0,8.0,71,0.00,,,0.00,Wunderground v.1.15,2013-06-09 06:34:00,
2013-06-09 01:40:00,65.9,56.2,29.82,ESE,119,5.0,8.0,71,0.00,,,0.00,Wunderground v.1.15,2013-06-09 06:40:00,
2013-06-09 01:45:00,65.8,56.1,29.81,SE,139,5.0,8.0,71,0.00,,,0.00,Wunderground v.1.15,2013-06-09 06:45:00,
2013-06-09 01:52:00,65.8,56.1,29.81,SE,128,5.0,8.0,71,0.00,,,0.00,Wunderground v.1.15,2013-06-09 06:52:00,
2013-06-09 01:57:00,65.8,56.1,29.81,ESE,116,6.0,8.0,71,0.00,,,0.00,Wunderground v.1.15,2013-06-09 06:57:00,
2013-06-09 02:04:00,65.8,56.1,29.80,ESE,115,6.0,9.0,71,0.00,,,0.00,Wunderground v.1.15,2013-06-09 07:04:00,
2013-06-09 02:10:00,65.8,56.5,29.80,East,100,6.0,6.0,72,0.00,,,0.00,Wunderground v.1.15,2013-06-09 07:10:00,
2013-06-09 02:15:00,65.7,56.4,29.80,SSE,155,5.0,8.0,72,0.00,,,0.00,Wunderground v.1.15,2013-06-09 07:15:00,
2013-06-09 02:22:00,65.6,56.3,29.80,SE,133,5.0,8.0,72,0.00,,,0.00,Wunderground v.1.15,2013-06-09 07:22:00,
2013-06-09 02:27:00,65.6,56.3,29.80,ESE,116,5.0,8.0,72,0.00,,,0.00,Wunderground v.1.15,2013-06-09 07:27:00,
2013-06-09 02:34:00,65.5,56.2,29.80,ESE,115,5.0,8.0,72,0.00,,,0.00,Wunderground v.1.15,2013-06-09 07:34:00,
2013-06-09 02:40:00,65.4,56.5,29.80,SE,138,5.0,8.0,73,0.00,,,0.00,Wunderground v.1.15,2013-06-09 07:40:00,
2013-06-09 02:46:00,65.4,56.5,29.79,SE,128,5.0,8.0,73,0.00,,,0.00,Wunderground v.1.15,2013-06-09 07:46:00,
2013-06-09 02:52:00,65.5,56.6,29.79,ESE,121,5.0,8.0,73,0.00,,,0.00,Wunderground v.1.15,2013-06-09 07:52:00,
2013-06-09 02:58:00,65.6,56.3,29.79,SE,143,5.0,8.0,72,0.00,,,0.00,Wunderground v.1.15,2013-06-09 07:58:00,
2013-06-09 03:04:00,65.6,56.3,29.79,ESE,122,5.0,8.0,72,0.00,,,0.00,Wunderground v.1.15,2013-06-09 08:04:00,
2013-06-09 03:09:00,65.6,56.3,29.78,SE,124,5.0,8.0,72,0.00,,,0.00,Wunderground v.1.15,2013-06-09 08:09:00,
2013-06-09 03:16:00,65.6,56.3,29.78,East,81,5.0,8.0,72,0.00,,,0.00,Wunderground v.1.15,2013-06-09 08:16:00,
2013-06-09 03:21:00,65.5,56.2,29.78,ESE,119,5.0,8.0,72,0.00,,,0.00,Wunderground v.1.15,2013-06-09 08:21:00,
2013-06-09 03:28:00,65.5,56.2,29.78,ESE,113,5.0,9.0,72,0.00,,,0.00,Wunderground v.1.15,2013-06-09 08:28:00,
2013-06-09 03:34:00,65.5,56.2,29.78,SE,127,5.0,8.0,72,0.00,,,0.00,Wunderground v.1.15,2013-06-09 08:34:00,
2013-06-09 03:40:00,65.5,56.2,29.78,ESE,113,5.0,8.0,72,0.00,,,0.00,Wunderground v.1.15,2013-06-09 08:40:00,
2013-06-09 03:46:00,65.2,56.7,29.77,ESE,119,6.0,8.0,74,0.00,,,0.00,Wunderground v.1.15,2013-06-09 08:46:00,
2013-06-09 03:52:00,64.7,56.6,29.77,SE,129,4.0,8.0,75,0.00,,,0.00,Wunderground v.1.15,2013-06-09 08:52:00,
2013-06-09 03:58:00,64.8,56.3,29.77,SE,139,4.0,8.0,74,0.00,,,0.00,Wunderground v.1.15,2013-06-09 08:58:00,
2013-06-09 04:03:00,64.8,55.9,29.77,ESE,104,4.0,8.0,73,0.00,,,0.00,Wunderground v.1.15,2013-06-09 09:03:00,
2013-06-09 04:10:00,64.8,55.9,29.77,SE,131,4.0,8.0,73,0.00,,,0.00,Wunderground v.1.15,2013-06-09 09:10:00,
2013-06-09 04:16:00,64.8,55.9,29.77,SE,139,4.0,8.0,73,0.00,,,0.00,Wunderground v.1.15,2013-06-09 09:16:00,
2013-06-09 04:22:00,64.8,55.9,29.78,SE,136,4.0,8.0,73,0.00,,,0.00,Wunderground v.1.15,2013-06-09 09:22:00,
2013-06-09 04:28:00,64.6,55.7,29.78,SE,144,3.0,8.0,73,0.00,,,0.00,Wunderground v.1.15,2013-06-09 09:28:00,
2013-06-09 04:33:00,64.6,56.1,29.77,SE,146,3.0,8.0,74,0.00,,,0.00,Wunderground v.1.15,2013-06-09 09:33:00,
2013-06-09 04:40:00,64.5,56.0,29.78,ESE,120,3.0,8.0,74,0.00,,,0.00,Wunderground v.1.15,2013-06-09 09:40:00,
2013-06-09 04:45:00,64.6,56.1,29.77,ESE,122,3.0,8.0,74,0.00,,,0.00,Wunderground v.1.15,2013-06-09 09:45:00,
2013-06-09 04:52:00,64.5,56.0,29.77,SE,129,3.0,8.0,74,0.00,,,0.00,Wunderground v.1.15,2013-06-09 09:52:00,
2013-06-09 04:58:00,64.4,55.9,29.77,SE,138,3.0,8.0,74,0.00,,,0.00,Wunderground v.1.15,2013-06-09 09:58:00,
2013-06-09 05:04:00,64.3,55.8,29.77,SE,140,3.0,8.0,74,0.00,,,0.00,Wunderground v.1.15,2013-06-09 10:04:00,
2013-06-09 05:10:00,64.3,55.8,29.77,ESE,117,3.0,8.0,74,0.00,,,0.00,Wunderground v.1.15,2013-06-09 10:10:00,
2013-06-09 05:16:00,64.1,55.6,29.77,SE,139,3.0,8.0,74,0.00,,,0.00,Wunderground v.1.15,2013-06-09 10:16:00,
2013-06-09 05:22:00,64.0,55.9,29.77,ESE,105,2.0,8.0,75,0.00,,,0.00,Wunderground v.1.15,2013-06-09 10:22:00,
2013-06-09 05:27:00,63.8,55.7,29.77,SE,129,2.0,8.0,75,0.00,,,0.00,Wunderground v.1.15,2013-06-09 10:27:00,
2013-06-09 05:34:00,63.7,55.6,29.77,ESE,117,2.0,8.0,75,0.00,,,0.00,Wunderground v.1.15,2013-06-09 10:34:00,
2013-06-09 05:39:00,63.6,55.5,29.77,SE,129,2.0,8.0,75,0.00,,,0.00,Wunderground v.1.15,2013-06-09 10:39:00,
2013-06-09 05:46:00,63.6,55.9,29.77,SE,138,2.0,8.0,76,0.00,,,0.00,Wunderground v.1.15,2013-06-09 10:46:00,
2013-06-09 05:52:00,63.5,55.8,29.77,ESE,123,2.0,8.0,76,0.00,,,0.00,Wunderground v.1.15,2013-06-09 10:52:00,
2013-06-09 05:57:00,63.5,55.8,29.77,SE,126,2.0,8.0,76,0.00,,,0.00,Wunderground v.1.15,2013-06-09 10:57:00,
2013-06-09 06:04:00,63.4,55.7,29.77,SE,128,2.0,8.0,76,0.00,,,0.00,Wunderground v.1.15,2013-06-09 11:04:00,
2013-06-09 06:09:00,63.3,55.6,29.77,SE,133,1.0,8.0,76,0.00,,,0.00,Wunderground v.1.15,2013-06-09 11:09:00,
2013-06-09 06:16:00,63.3,56.0,29.77,SE,146,2.0,8.0,77,0.00,,,0.00,Wunderground v.1.15,2013-06-09 11:16:00,
2013-06-09 06:22:00,63.3,56.0,29.77,ESE,118,2.0,8.0,77,0.00,,,0.00,Wunderground v.1.15,2013-06-09 11:22:00,
2013-06-09 06:28:00,63.3,56.0,29.77,ESE,121,1.0,8.0,77,0.00,,,0.00,Wunderground v.1.15,2013-06-09 11:28:00,
2013-06-09 06:33:00,63.4,56.1,29.77,SE,124,1.0,8.0,77,0.00,,,0.00,Wunderground v.1.15,2013-06-09 11:33:00,
2013-06-09 06:40:00,63.4,56.1,29.78,ESE,119,2.0,2.0,77,0.00,,,0.00,Wunderground v.1.15,2013-06-09 11:40:00,
2013-06-09 06:45:00,63.5,56.5,29.77,SE,134,2.0,8.0,78,0.00,,,0.00,Wunderground v.1.15,2013-06-09 11:45:00,
2013-06-09 06:52:00,63.7,56.7,29.77,ESE,121,2.0,8.0,78,0.00,,,0.00,Wunderground v.1.15,2013-06-09 11:52:00,
2013-06-09 06:57:00,63.9,56.9,29.77,SE,134,2.0,8.0,78,0.00,,,0.00,Wunderground v.1.15,2013-06-09 11:57:00,
2013-06-09 07:04:00,64.0,57.0,29.77,SE,135,2.0,8.0,78,0.00,,,0.00,Wunderground v.1.15,2013-06-09 12:04:00,
2013-06-09 07:10:00,64.2,56.8,29.77,SE,143,3.0,8.0,77,0.00,,,0.00,Wunderground v.1.15,2013-06-09 12:10:00,
2013-06-09 07:16:00,64.5,57.1,29.77,SE,126,4.0,8.0,77,0.00,,,0.00,Wunderground v.1.15,2013-06-09 12:16:00,
2013-06-09 07:21:00,64.8,57.4,29.77,SE,134,3.0,5.0,77,0.00,,,0.00,Wunderground v.1.15,2013-06-09 12:21:00,
2013-06-09 07:28:00,64.9,57.5,29.77,SE,130,3.0,8.0,77,0.00,,,0.00,Wunderground v.1.15,2013-06-09 12:28:00,
2013-06-09 07:34:00,65.0,57.6,29.76,SE,131,3.0,8.0,77,0.00,,,0.00,Wunderground v.1.15,2013-06-09 12:34:00,
2013-06-09 07:40:00,64.9,57.5,29.76,ESE,122,4.0,8.0,77,0.00,,,0.00,Wunderground v.1.15,2013-06-09 12:40:00,
2013-06-09 07:46:00,64.9,57.5,29.76,East,101,4.0,8.0,77,0.00,,,0.00,Wunderground v.1.15,2013-06-09 12:46:00,
2013-06-09 07:51:00,64.9,57.5,29.76,SE,136,5.0,8.0,77,0.00,,,0.00,Wunderground v.1.15,2013-06-09 12:51:00,
2013-06-09 07:58:00,64.8,57.8,29.76,SE,146,5.0,8.0,78,0.00,,,0.00,Wunderground v.1.15,2013-06-09 12:58:00,
2013-06-09 08:03:00,64.8,57.8,29.76,ESE,122,5.0,7.0,78,0.00,,,0.00,Wunderground v.1.15,2013-06-09 13:03:00,
2013-06-09 08:10:00,64.9,57.9,29.76,SE,125,5.0,9.0,78,0.00,,,0.00,Wunderground v.1.15,2013-06-09 13:10:00,
2013-06-09 08:16:00,65.1,58.1,29.76,SE,136,5.0,9.0,78,0.00,,,0.00,Wunderground v.1.15,2013-06-09 13:16:00,
2013-06-09 08:22:00,65.2,58.5,29.76,SE,129,4.0,8.0,79,0.00,,,0.00,Wunderground v.1.15,2013-06-09 13:22:00,
2013-06-09 08:28:00,65.3,58.6,29.76,SE,139,4.0,8.0,79,0.00,,,0.00,Wunderground v.1.15,2013-06-09 13:28:00,
2013-06-09 08:34:00,65.3,58.3,29.76,ESE,120,4.0,8.0,78,0.00,,,0.00,Wunderground v.1.15,2013-06-09 13:34:00,
2013-06-09 08:40:00,65.3,58.6,29.76,East,100,5.0,5.0,79,0.00,,,0.00,Wunderground v.1.15,2013-06-09 13:40:00,
2013-06-09 08:46:00,65.3,58.6,29.76,SSE,153,4.0,8.0,79,0.00,,,0.00,Wunderground v.1.15,2013-06-09 13:46:00,
2013-06-09 08:52:00,65.3,58.6,29.76,SE,133,4.0,8.0,79,0.00,,,0.00,Wunderground v.1.15,2013-06-09 13:52:00,
2013-06-09 08:57:00,65.1,59.1,29.76,SE,142,4.0,8.0,81,0.00,,,0.00,Wunderground v.1.15,2013-06-09 13:57:00,
2013-06-09 09:04:00,64.9,59.3,29.76,East,94,3.0,8.0,82,0.00,,,0.00,Wunderground v.1.15,2013-06-09 14:04:00,
2013-06-09 09:10:00,64.8,59.5,29.76,SE,143,3.0,8.0,83,0.00,,,0.00,Wunderground v.1.15,2013-06-09 14:10:00,
2013-06-09 09:16:00,64.9,59.6,29.76,ESE,113,3.0,8.0,83,0.00,,,0.00,Wunderground v.1.15,2013-06-09 14:16:00,
2013-06-09 09:22:00,64.9,59.3,29.76,SSE,155,4.0,8.0,82,0.00,,,0.00,Wunderground v.1.15,2013-06-09 14:22:00,
2013-06-09 09:28:00,65.0,59.4,29.76,SE,129,4.0,8.0,82,0.00,,,0.00,Wunderground v.1.15,2013-06-09 14:28:00,
2013-06-09 09:34:00,65.0,59.4,29.76,SE,139,4.0,8.0,82,0.00,,,0.00,Wunderground v.1.15,2013-06-09 14:34:00,
2013-06-09 09:40:00,65.0,59.4,29.77,SE,139,4.0,8.0,82,0.00,,,0.00,Wunderground v.1.15,2013-06-09 14:40:00,
2013-06-09 09:46:00,65.0,59.4,29.77,SE,124,4.0,8.0,82,0.00,,,0.00,Wunderground v.1.15,2013-06-09 14:46:00,
2013-06-09 09:51:00,65.0,59.4,29.76,SE,130,4.0,8.0,82,0.00,,,0.00,Wunderground v.1.15,2013-06-09 14:51:00,
2013-06-09 09:58:00,65.0,59.4,29.76,ESE,108,4.0,8.0,82,0.00,,,0.00,Wunderground v.1.15,2013-06-09 14:58:00,
2013-06-09 10:04:00,65.0,59.4,29.76,SE,129,4.0,8.0,82,0.00,,,0.00,Wunderground v.1.15,2013-06-09 15:04:00,
2013-06-09 10:10:00,64.9,59.6,29.77,South,173,4.0,4.0,83,0.00,,,0.00,Wunderground v.1.15,2013-06-09 15:10:00,
2013-06-09 10:16:00,64.5,59.9,29.77,SE,144,3.0,8.0,85,0.00,,,0.00,Wunderground v.1.15,2013-06-09 15:16:00,
2013-06-09 10:21:00,64.0,60.1,29.77,SSE,154,3.0,8.0,87,0.00,,,0.00,Wunderground v.1.15,2013-06-09 15:21:00,
2013-06-09 10:28:00,63.3,60.3,29.77,SSE,160,3.0,8.0,90,0.18,,,0.01,Wunderground v.1.15,2013-06-09 15:28:00,
2013-06-09 10:34:00,62.9,60.2,29.77,SSE,167,2.0,8.0,91,0.07,,,0.01,Wunderground v.1.15,2013-06-09 15:34:00,
2013-06-09 10:40:00,62.8,60.4,29.77,SE,135,2.0,8.0,92,0.04,,,0.01,Wunderground v.1.15,2013-06-09 15:40:00,
2013-06-09 10:46:00,62.8,60.7,29.77,SE,125,2.0,8.0,93,0.00,,,0.02,Wunderground v.1.15,2013-06-09 15:46:00,
2013-06-09 10:52:00,62.8,60.4,29.77,SE,143,2.0,8.0,92,0.00,,,0.02,Wunderground v.1.15,2013-06-09 15:52:00,
2013-06-09 10:58:00,62.9,60.5,29.77,SE,145,3.0,8.0,92,0.00,,,0.02,Wunderground v.1.15,2013-06-09 15:58:00,
2013-06-09 11:04:00,63.1,60.7,29.77,SSE,167,3.0,8.0,92,0.00,,,0.02,Wunderground v.1.15,2013-06-09 16:04:00,
2013-06-09 11:10:00,63.2,60.8,29.76,SE,134,4.0,4.0,92,0.00,,,0.02,Wunderground v.1.15,2013-06-09 16:10:00,
2013-06-09 11:15:00,63.6,61.5,29.76,SE,124,4.0,8.0,93,0.00,,,0.02,Wunderground v.1.15,2013-06-09 16:15:00,
2013-06-09 11:22:00,64.2,61.5,29.76,SE,136,5.0,8.0,91,0.00,,,0.02,Wunderground v.1.15,2013-06-09 16:22:00,
2013-06-09 11:28:00,65.0,61.7,29.76,ESE,121,5.0,8.0,89,0.00,,,0.02,Wunderground v.1.15,2013-06-09 16:28:00,
2013-06-09 11:34:00,65.8,61.8,29.76,SE,136,5.0,8.0,87,0.00,,,0.02,Wunderground v.1.15,2013-06-09 16:34:00,
2013-06-09 11:40:00,66.6,61.9,29.76,ESE,115,6.0,6.0,85,0.00,,,0.02,Wunderground v.1.15,2013-06-09 16:40:00,
2013-06-09 11:45:00,67.1,62.4,29.76,SE,126,6.0,12.0,85,0.00,,,0.02,Wunderground v.1.15,2013-06-09 16:45:00,
2013-06-09 11:52:00,67.2,61.5,29.76,SSE,153,6.0,8.0,82,0.00,,,0.02,Wunderground v.1.15,2013-06-09 16:52:00,
2013-06-09 11:58:00,67.1,62.1,29.76,SE,133,4.0,8.0,84,0.00,,,0.02,Wunderground v.1.15,2013-06-09 16:58:00,
2013-06-09 12:04:00,67.0,61.7,29.76,SE,139,5.0,8.0,83,0.00,,,0.02,Wunderground v.1.15,2013-06-09 17:04:00,
2013-06-09 12:10:00,67.0,61.7,29.76,SSE,155,5.0,5.0,83,0.00,,,0.02,Wunderground v.1.15,2013-06-09 17:10:00,
2013-06-09 12:16:00,66.9,61.6,29.76,SE,131,5.0,8.0,83,0.00,,,0.02,Wunderground v.1.15,2013-06-09 17:16:00,
2013-06-09 12:22:00,66.9,61.2,29.76,SSE,155,5.0,8.0,82,0.00,,,0.02,Wunderground v.1.15,2013-06-09 17:22:00,
2013-06-09 12:28:00,67.2,61.5,29.75,SE,136,6.0,8.0,82,0.00,,,0.02,Wunderground v.1.15,2013-06-09 17:28:00,
2013-06-09 12:34:00,67.9,61.5,29.75,SE,126,5.0,8.0,80,0.00,,,0.02,Wunderground v.1.15,2013-06-09 17:34:00,
2013-06-09 12:39:00,68.5,61.4,29.75,SE,128,6.0,10.0,78,0.00,,,0.02,Wunderground v.1.15,2013-06-09 17:39:00,
2013-06-09 12:46:00,69.1,62.3,29.75,ESE,122,7.0,10.0,79,0.00,,,0.02,Wunderground v.1.15,2013-06-09 17:46:00,
2013-06-09 12:52:00,69.7,62.2,29.74,ESE,105,6.0,8.0,77,0.00,,,0.02,Wunderground v.1.15,2013-06-09 17:52:00,
2013-06-09 12:58:00,69.9,62.0,29.74,SE,129,6.0,8.0,76,0.00,,,0.02,Wunderground v.1.15,2013-06-09 17:58:00,
2013-06-09 13:04:00,69.7,62.2,29.74,ESE,105,7.0,11.0,77,0.00,,,0.02,Wunderground v.1.15,2013-06-09 18:04:00,
2013-06-09 13:09:00,69.9,62.4,29.74,SSE,149,7.0,8.0,77,0.00,,,0.02,Wunderground v.1.15,2013-06-09 18:09:00,
2013-06-09 13:16:00,70.3,63.1,29.75,SE,142,6.0,8.0,78,0.00,,,0.02,Wunderground v.1.15,2013-06-09 18:16:00,
2013-06-09 13:21:00,70.3,62.7,29.75,SE,129,6.0,11.0,77,0.00,,,0.02,Wunderground v.1.15,2013-06-09 18:21:00,
2013-06-09 13:28:00,69.7,62.2,29.74,SE,143,9.0,13.0,77,0.00,,,0.02,Wunderground v.1.15,2013-06-09 18:28:00,
2013-06-09 13:34:00,69.6,62.8,29.74,SE,135,10.0,10.0,79,0.00,,,0.02,Wunderground v.1.15,2013-06-09 18:34:00,
2013-06-09 13:39:00,70.2,63.4,29.74,SE,135,7.0,8.0,79,0.00,,,0.02,Wunderground v.1.15,2013-06-09 18:39:00,
2013-06-09 13:46:00,69.9,62.4,29.74,ESE,120,7.0,11.0,77,0.00,,,0.02,Wunderground v.1.15,2013-06-09 18:46:00,
2013-06-09 13:52:00,70.5,62.9,29.73,SE,124,8.0,11.0,77,0.00,,,0.02,Wunderground v.1.15,2013-06-09 18:52:00,
2013-06-09 13:58:00,71.0,62.7,29.73,SE,129,8.0,11.0,75,0.00,,,0.02,Wunderground v.1.15,2013-06-09 18:58:00,
2013-06-09 14:03:00,71.3,62.2,29.73,SSE,165,8.0,11.0,73,0.00,,,0.02,Wunderground v.1.15,2013-06-09 19:03:00,
2013-06-09 14:10:00,71.5,63.2,29.73,SE,131,7.0,7.0,75,0.00,,,0.02,Wunderground v.1.15,2013-06-09 19:10:00,
2013-06-09 14:16:00,71.9,62.4,29.73,SE,125,8.0,13.0,72,0.00,,,0.02,Wunderground v.1.15,2013-06-09 19:16:00,
2013-06-09 14:22:00,71.9,62.8,29.73,SE,131,8.0,11.0,73,0.00,,,0.02,Wunderground v.1.15,2013-06-09 19:22:00,
2013-06-09 14:28:00,71.7,62.6,29.73,ESE,122,8.0,14.0,73,0.00,,,0.02,Wunderground v.1.15,2013-06-09 19:28:00,
2013-06-09 14:34:00,71.1,62.0,29.73,ESE,113,8.0,8.0,73,0.00,,,0.02,Wunderground v.1.15,2013-06-09 19:34:00,
2013-06-09 14:40:00,70.5,62.2,29.73,ESE,105,9.0,11.0,75,0.00,,,0.02,Wunderground v.1.15,2013-06-09 19:40:00,
2013-06-09 14:46:00,70.2,61.9,29.73,ESE,120,10.0,12.0,75,0.00,,,0.02,Wunderground v.1.15,2013-06-09 19:46:00,
2013-06-09 14:52:00,70.2,61.9,29.73,SE,136,10.0,10.0,75,0.00,,,0.02,Wunderground v.1.15,2013-06-09 19:52:00,
2013-06-09 14:57:00,70.1,62.2,29.73,SE,143,8.0,11.0,76,0.00,,,0.02,Wunderground v.1.15,2013-06-09 19:57:00,
2013-06-09 15:04:00,69.6,61.7,29.73,SE,139,8.0,13.0,76,0.00,,,0.02,Wunderground v.1.15,2013-06-09 20:04:00,
2013-06-09 15:09:00,69.4,61.1,29.73,East,84,8.0,12.0,75,0.00,,,0.02,Wunderground v.1.15,2013-06-09 20:09:00,
2013-06-09 15:16:00,69.0,60.4,29.73,ESE,122,8.0,12.0,74,0.00,,,0.02,Wunderground v.1.15,2013-06-09 20:16:00,
2013-06-09 15:21:00,68.9,60.3,29.73,ESE,122,8.0,8.0,74,0.00,,,0.02,Wunderground v.1.15,2013-06-09 20:21:00,
2013-06-09 15:28:00,69.1,60.8,29.73,ESE,122,6.0,8.0,75,0.00,,,0.02,Wunderground v.1.15,2013-06-09 20:28:00,
2013-06-09 15:34:00,69.6,61.7,29.72,ESE,121,6.0,8.0,76,0.00,,,0.02,Wunderground v.1.15,2013-06-09 20:34:00,
2013-06-09 15:39:00,69.7,61.4,29.72,SE,143,7.0,8.0,75,0.00,,,0.02,Wunderground v.1.15,2013-06-09 20:39:00,
2013-06-09 15:46:00,69.4,61.5,29.72,SE,136,7.0,9.0,76,0.00,,,0.02,Wunderground v.1.15,2013-06-09 20:46:00,
2013-06-09 15:52:00,69.5,61.6,29.72,SE,125,8.0,9.0,76,0.00,,,0.02,Wunderground v.1.15,2013-06-09 20:52:00,
2013-06-09 15:58:00,69.4,61.9,29.72,SSE,164,9.0,9.0,77,0.00,,,0.02,Wunderground v.1.15,2013-06-09 20:58:00,
2013-06-09 16:03:00,69.6,62.1,29.72,SE,143,7.0,8.0,77,0.00,,,0.02,Wunderground v.1.15,2013-06-09 21:03:00,
2013-06-09 16:10:00,69.7,61.8,29.71,SE,139,7.0,7.0,76,0.00,,,0.02,Wunderground v.1.15,2013-06-09 21:10:00,
2013-06-09 16:16:00,69.6,62.1,29.71,ESE,121,7.0,8.0,77,0.00,,,0.02,Wunderground v.1.15,2013-06-09 21:16:00,
2013-06-09 16:22:00,69.7,61.8,29.70,SE,136,7.0,8.0,76,0.00,,,0.02,Wunderground v.1.15,2013-06-09 21:22:00,
2013-06-09 16:28:00,70.6,62.3,29.70,ESE,105,7.0,11.0,75,0.00,,,0.02,Wunderground v.1.15,2013-06-09 21:28:00,
2013-06-09 16:33:00,70.5,62.2,29.70,ESE,110,7.0,8.0,75,0.00,,,0.02,Wunderground v.1.15,2013-06-09 21:33:00,
2013-06-09 16:40:00,70.9,61.8,29.70,SE,134,7.0,7.0,73,0.00,,,0.02,Wunderground v.1.15,2013-06-09 21:40:00,
2013-06-09 16:45:00,71.0,61.5,29.70,SSE,165,8.0,11.0,72,0.00,,,0.02,Wunderground v.1.15,2013-06-09 21:45:00,
2013-06-09 16:52:00,71.3,61.8,29.70,SSE,165,9.0,11.0,72,0.00,,,0.02,Wunderground v.1.15,2013-06-09 21:52:00,
2013-06-09 16:58:00,71.4,62.3,29.71,ESE,122,8.0,11.0,73,0.00,,,0.02,Wunderground v.1.15,2013-06-09 21:58:00,
2013-06-09 17:04:00,71.1,62.4,29.71,SE,141,7.0,11.0,74,0.00,,,0.02,Wunderground v.1.15,2013-06-09 22:04:00,
2013-06-09 17:10:00,70.9,61.4,29.71,ESE,114,7.0,7.0,72,0.00,,,0.02,Wunderground v.1.15,2013-06-09 22:10:00,
2013-06-09 17:15:00,70.5,62.2,29.71,SE,146,7.0,11.0,75,0.00,,,0.02,Wunderground v.1.15,2013-06-09 22:15:00,
2013-06-09 17:22:00,70.5,61.8,29.71,SE,136,6.0,8.0,74,0.00,,,0.02,Wunderground v.1.15,2013-06-09 22:22:00,
2013-06-09 17:27:00,70.7,62.4,29.71,SSE,149,6.0,9.0,75,0.00,,,0.02,Wunderground v.1.15,2013-06-09 22:27:00,
2013-06-09 17:34:00,71.0,62.7,29.71,SE,133,5.0,8.0,75,0.00,,,0.02,Wunderground v.1.15,2013-06-09 22:34:00,
2013-06-09 17:40:00,71.2,62.5,29.70,ESE,102,6.0,6.0,74,0.00,,,0.02,Wunderground v.1.15,2013-06-09 22:40:00,
2013-06-09 17:46:00,71.5,62.4,29.70,SSE,155,6.0,8.0,73,0.00,,,0.02,Wunderground v.1.15,2013-06-09 22:46:00,
2013-06-09 17:52:00,71.8,62.7,29.70,SSE,165,6.0,8.0,73,0.00,,,0.02,Wunderground v.1.15,2013-06-09 22:52:00,
2013-06-09 17:58:00,71.5,62.0,29.70,ESE,120,6.0,8.0,72,0.00,,,0.02,Wunderground v.1.15,2013-06-09 22:58:00,
2013-06-09 18:04:00,70.9,61.8,29.71,SE,145,6.0,8.0,73,0.00,,,0.02,Wunderground v.1.15,2013-06-09 23:04:00,
2013-06-09 18:10:00,71.0,61.9,29.71,East,91,6.0,6.0,73,0.00,,,0.02,Wunderground v.1.15,2013-06-09 23:10:00,
2013-06-09 18:16:00,70.8,61.7,29.71,ESE,122,7.0,8.0,73,0.00,,,0.02,Wunderground v.1.15,2013-06-09 23:16:00,
2013-06-09 18:21:00,71.4,62.3,29.71,SE,129,7.0,8.0,73,0.00,,,0.02,Wunderground v.1.15,2013-06-09 23:21:00,
2013-06-09 18:28:00,70.9,62.2,29.71,SE,125,6.0,8.0,74,0.00,,,0.02,Wunderground v.1.15,2013-06-09 23:28:00,
2013-06-09 18:33:00,70.8,61.7,29.71,SE,136,6.0,8.0,73,0.00,,,0.02,Wunderground v.1.15,2013-06-09 23:33:00,
2013-06-09 18:40:00,70.6,61.9,29.71,SE,134,5.0,8.0,74,0.00,,,0.02,Wunderground v.1.15,2013-06-09 23:40:00,
2013-06-09 18:45:00,71.0,61.9,29.71,ESE,122,5.0,8.0,73,0.00,,,0.02,Wunderground v.1.15,2013-06-09 23:45:00,
2013-06-09 18:52:00,71.1,62.0,29.71,SE,131,5.0,8.0,73,0.00,,,0.02,Wunderground v.1.15,2013-06-09 23:52:00,
2013-06-09 18:58:00,70.9,61.8,29.71,SE,126,5.0,8.0,73,0.00,,,0.02,Wunderground v.1.15,2013-06-09 23:58:00,
2013-06-09 19:04:00,70.3,62.0,29.71,SE,139,5.0,8.0,75,0.00,,,0.02,Wunderground v.1.15,2013-06-10 00:04:00,
2013-06-09 19:10:00,69.9,62.0,29.71,SE,129,5.0,5.0,76,0.00,,,0.02,Wunderground v.1.15,2013-06-10 00:10:00,
2013-06-09 19:15:00,69.8,61.9,29.71,ESE,110,3.0,8.0,76,0.00,,,0.02,Wunderground v.1.15,2013-06-10 00:15:00,
2013-06-09 19:22:00,69.6,62.1,29.71,SE,136,3.0,8.0,77,0.00,,,0.02,Wunderground v.1.15,2013-06-10 00:22:00,
2013-06-09 19:27:00,69.5,62.0,29.71,SE,133,3.0,8.0,77,0.00,,,0.02,Wunderground v.1.15,2013-06-10 00:27:00,
2013-06-09 19:34:00,69.2,61.7,29.71,ESE,105,4.0,8.0,77,0.00,,,0.02,Wunderground v.1.15,2013-06-10 00:34:00,
2013-06-09 19:39:00,68.9,61.8,29.71,ESE,122,4.0,4.0,78,0.00,,,0.02,Wunderground v.1.15,2013-06-10 00:39:00,
2013-06-09 19:46:00,68.5,61.4,29.71,SE,133,3.0,8.0,78,0.00,,,0.02,Wunderground v.1.15,2013-06-10 00:46:00,
2013-06-09 19:52:00,68.3,61.5,29.70,SE,126,3.0,8.0,79,0.00,,,0.02,Wunderground v.1.15,2013-06-10 00:52:00,
2013-06-09 19:58:00,68.0,61.2,29.71,ESE,108,3.0,8.0,79,0.00,,,0.02,Wunderground v.1.15,2013-06-10 00:58:00,
2013-06-09 20:04:00,67.8,61.4,29.71,SE,139,3.0,8.0,80,0.00,,,0.02,Wunderground v.1.15,2013-06-10 01:04:00,
2013-06-09 20:10:00,67.6,61.6,29.71,SE,126,3.0,8.0,81,0.00,,,0.02,Wunderground v.1.15,2013-06-10 01:10:00,
2013-06-09 20:16:00,67.5,61.5,29.71,SE,131,3.0,8.0,81,0.00,,,0.02,Wunderground v.1.15,2013-06-10 01:16:00,
2013-06-09 20:22:00,67.4,61.4,29.71,ESE,108,2.0,8.0,81,0.00,,,0.02,Wunderground v.1.15,2013-06-10 01:22:00,
2013-06-09 20:28:00,67.3,61.3,29.71,ESE,114,2.0,8.0,81,0.00,,,0.02,Wunderground v.1.15,2013-06-10 01:28:00,
2013-06-09 20:34:00,67.1,61.1,29.71,SE,128,2.0,8.0,81,0.00,,,0.02,Wunderground v.1.15,2013-06-10 01:34:00,
2013-06-09 20:39:00,66.9,61.2,29.71,SE,128,2.0,8.0,82,0.00,,,0.02,Wunderground v.1.15,2013-06-10 01:39:00,
2013-06-09 20:46:00,66.7,61.0,29.71,ESE,112,3.0,8.0,82,0.00,,,0.02,Wunderground v.1.15,2013-06-10 01:46:00,
2013-06-09 20:51:00,66.7,61.0,29.71,ESE,119,2.0,8.0,82,0.00,,,0.02,Wunderground v.1.15,2013-06-10 01:51:00,
2013-06-09 20:58:00,66.6,61.3,29.71,ESE,112,2.0,8.0,83,0.00,,,0.02,Wunderground v.1.15,2013-06-10 01:58:00,
2013-06-09 21:03:00,66.5,61.2,29.72,ESE,115,3.0,8.0,83,0.00,,,0.02,Wunderground v.1.15,2013-06-10 02:03:00,
2013-06-09 21:10:00,66.4,61.4,29.72,ESE,113,2.0,8.0,84,0.00,,,0.02,Wunderground v.1.15,2013-06-10 02:10:00,
2013-06-09 21:16:00,66.3,61.7,29.72,ESE,113,2.0,8.0,85,0.00,,,0.02,Wunderground v.1.15,2013-06-10 02:16:00,
2013-06-09 21:22:00,66.1,61.8,29.72,SE,133,2.0,8.0,86,0.00,,,0.02,Wunderground v.1.15,2013-06-10 02:22:00,
2013-06-09 21:28:00,65.9,61.6,29.72,SE,126,2.0,8.0,86,0.00,,,0.02,Wunderground v.1.15,2013-06-10 02:28:00,
2013-06-09 21:34:00,65.8,61.8,29.73,ESE,119,2.0,8.0,87,0.00,,,0.02,Wunderground v.1.15,2013-06-10 02:34:00,
2013-06-09 21:40:00,65.7,61.7,29.73,ESE,122,1.0,8.0,87,0.00,,,0.02,Wunderground v.1.15,2013-06-10 02:40:00,
2013-06-09 21:45:00,65.6,61.6,29.73,ESE,119,1.0,8.0,87,0.00,,,0.02,Wunderground v.1.15,2013-06-10 02:45:00,
2013-06-09 21:52:00,65.6,61.9,29.74,ESE,122,1.0,2.0,88,0.00,,,0.02,Wunderground v.1.15,2013-06-10 02:52:00,
2013-06-09 21:57:00,65.6,61.9,29.74,ESE,119,1.0,8.0,88,0.00,,,0.02,Wunderground v.1.15,2013-06-10 02:57:00,
2013-06-09 22:04:00,65.6,61.9,29.74,ESE,121,0.0,8.0,88,0.00,,,0.02,Wunderground v.1.15,2013-06-10 03:04:00,
2013-06-09 22:09:00,65.5,61.9,29.75,ESE,118,0.0,8.0,88,0.00,,,0.02,Wunderground v.1.15,2013-06-10 03:09:00,
2013-06-09 22:16:00,65.4,61.8,29.75,ESE,119,0.0,8.0,88,0.00,,,0.02,Wunderground v.1.15,2013-06-10 03:16:00,
2013-06-09 22:22:00,65.3,61.7,29.75,ESE,117,0.0,8.0,88,0.00,,,0.02,Wunderground v.1.15,2013-06-10 03:22:00,
2013-06-09 22:28:00,65.2,61.6,29.75,ESE,103,0.0,8.0,88,0.00,,,0.02,Wunderground v.1.15,2013-06-10 03:28:00,
2013-06-09 22:34:00,65.1,61.5,29.75,SE,129,0.0,8.0,88,0.00,,,0.02,Wunderground v.1.15,2013-06-10 03:34:00,
2013-06-09 22:39:00,64.8,61.5,29.75,ESE,122,0.0,8.0,89,0.00,,,0.02,Wunderground v.1.15,2013-06-10 03:39:00,
2013-06-09 22:46:00,64.5,61.2,29.75,ESE,121,0.0,8.0,89,0.00,,,0.02,Wunderground v.1.15,2013-06-10 03:46:00,
2013-06-09 22:52:00,64.2,61.2,29.75,ESE,120,0.0,8.0,90,0.00,,,0.02,Wunderground v.1.15,2013-06-10 03:52:00,
2013-06-09 22:58:00,63.9,60.9,29.75,ESE,122,0.0,8.0,90,0.00,,,0.02,Wunderground v.1.15,2013-06-10 03:58:00,
2013-06-09 23:02:00,63.8,61.1,29.75,ESE,120,0.0,8.0,91,0.00,,,0.02,Wunderground v.1.15,2013-06-10 04:02:00,
2013-06-09 23:03:00,63.7,61.0,29.75,ESE,120,0.0,8.0,91,0.00,,,0.02,Wunderground v.1.15,2013-06-10 04:03:00,
2013-06-09 23:05:00,63.6,60.9,29.75,ESE,120,0.0,8.0,91,0.00,,,0.02,Wunderground v.1.15,2013-06-10 04:05:00,
2013-06-09 23:12:00,63.3,60.6,29.75,ESE,120,0.0,8.0,91,0.00,,,0.02,Wunderground v.1.15,2013-06-10 04:12:00,
2013-06-09 23:16:00,63.1,60.7,29.75,East,101,0.0,8.0,92,0.00,,,0.02,Wunderground v.1.15,2013-06-10 04:16:00,
2013-06-09 23:22:00,62.9,60.5,29.75,East,91,0.0,8.0,92,0.00,,,0.02,Wunderground v.1.15,2013-06-10 04:22:00,
2013-06-09 23:28:00,62.8,60.4,29.75,East,81,0.0,8.0,92,0.00,,,0.02,Wunderground v.1.15,2013-06-10 04:28:00,
2013-06-09 23:33:00,62.6,60.5,29.74,East,93,0.0,8.0,93,0.00,,,0.02,Wunderground v.1.15,2013-06-10 04:33:00,
2013-06-09 23:40:00,62.4,60.3,29.75,ESE,103,0.0,8.0,93,0.00,,,0.02,Wunderground v.1.15,2013-06-10 04:40:00,
2013-06-09 23:46:00,62.2,60.5,29.75,ESE,113,0.0,8.0,94,0.00,,,0.02,Wunderground v.1.15,2013-06-10 04:46:00,
2013-06-09 23:52:00,62.0,60.3,29.75,ESE,113,0.0,8.0,94,0.00,,,0.02,Wunderground v.1.15,2013-06-10 04:52:00,
2013-06-09 23:58:00,61.8,60.1,29.75,ESE,111,0.0,8.0,94,0.00,,,0.02,Wunderground v.1.15,2013-06-10 04:58:00,